DL9RAN-11 Weather Reports


Display with metric or nautical units.
time (UTC)temp
F
wind
direction
speed
MPH
gust
MPH
rain 1hr
in
rain 24hr
in
rain mn
in
humidity
%
barometer
mb
20260505124735 77 0.0 0.0 0.00 0.00 0.00 37 1010.4
20260505123704 77 0.0 0.0 0.00 0.00 0.00 36 1010.4
20260505123204 78 0.0 0.0 0.00 0.00 0.00 36 1010.4
20260505122132 78 0.0 0.0 0.00 0.00 0.00 36 1010.4
20260505121101 79 0.0 0.0 0.00 0.00 0.00 35 1010.8
20260505120029 79 0.0 0.0 0.00 0.00 0.00 36 1011.0
20260505114426 79 0.0 0.0 0.00 0.00 0.00 34 1011.0
20260505113355 79 0.0 0.0 0.00 0.00 0.00 35 1011.0
20260505112323 79 0.0 0.0 0.00 0.00 0.00 36 1011.0
20260505111823 79 0.0 0.0 0.00 0.00 0.00 37 1011.1
20260505110220 81 0.0 0.0 0.00 0.00 0.00 35 1011.2
20260505101944 80 0.0 0.0 0.00 0.00 0.00 43 1011.5
20260505095238 79 0.0 0.0 0.00 0.00 0.00 43 1011.5
20260505093105 78 0.0 0.0 0.00 0.00 0.00 45 1011.6
20260505092604 77 0.0 0.0 0.00 0.00 0.00 46 1011.6
20260505091533 77 0.0 0.0 0.00 0.00 0.00 47 1011.6
20260505091033 76 0.0 0.0 0.00 0.00 0.00 46 1011.6
20260505090532 76 0.0 0.0 0.00 0.00 0.00 46 1011.6
20260505090032 76 0.0 0.0 0.00 0.00 0.00 47 1011.6
20260505083858 75 0.0 0.0 0.00 0.00 0.00 48 1011.6
20260505082826 75 0.0 0.0 0.00 0.00 0.00 49 1011.6
20260505082326 74 0.0 0.0 0.00 0.00 0.00 51 1011.9
20260505081826 73 0.0 0.0 0.00 0.00 0.00 51 1011.9
20260505081325 73 0.0 0.0 0.00 0.00 0.00 52 1011.9
20260505080825 73 0.0 0.0 0.00 0.00 0.00 53 1011.7
20260505075754 72 0.0 0.0 0.00 0.00 0.00 53 1011.9
20260505075253 72 0.0 0.0 0.00 0.00 0.00 53 1011.9
20260505074222 71 0.0 0.0 0.00 0.00 0.00 55 1011.9
20260505073150 71 0.0 0.0 0.00 0.00 0.00 55 1011.9
20260505072650 69 0.0 0.0 0.00 0.00 0.00 56 1011.9
20260505072149 69 0.0 0.0 0.00 0.00 0.00 57 1011.9
20260505071649 69 0.0 0.0 0.00 0.00 0.00 58 1011.9
20260505071149 69 0.0 0.0 0.00 0.00 0.00 58 1011.9
20260505070649 69 0.0 0.0 0.00 0.00 0.00 58 1011.9
20260505070148 68 0.0 0.0 0.00 0.00 0.00 60 1011.9
20260505065117 67 0.0 0.0 0.00 0.00 0.00 61 1011.9
20260505064617 66 0.0 0.0 0.00 0.00 0.00 61 1011.9
20260505064116 66 0.0 0.0 0.00 0.00 0.00 61 1011.9
20260505055737 62 0.0 0.0 0.00 0.00 0.00 66 1011.9
20260505055237 62 0.0 0.0 0.00 0.00 0.00 66 1011.6
20260505054206 60 0.0 0.0 0.00 0.00 0.00 67 1011.6
20260505053705 60 0.0 0.0 0.00 0.00 0.00 67 1011.6
20260505052634 58 0.0 0.0 0.00 0.00 0.00 67 1011.6
20260505051031 58 0.0 0.0 0.00 0.00 0.00 66 1011.6
20260505040019 58 0.0 0.0 0.00 0.00 0.00 64 1011.8
20260505032743 59 0.0 0.0 0.00 0.00 0.00 63 1011.7
20260505032243 59 0.0 0.0 0.00 0.00 0.00 62 1011.9
20260505031742 59 0.0 0.0 0.00 0.00 0.00 62 1011.9
20260505030711 59 0.0 0.0 0.00 0.00 0.00 62 1011.9
20260505024537 60 0.0 0.0 0.00 0.00 0.00 61 1012.2
20260505024037 60 0.0 0.0 0.00 0.00 0.00 61 1012.2
20260505023536 60 0.0 0.0 0.00 0.00 0.00 61 1012.2
20260505023036 60 0.0 0.0 0.00 0.00 0.00 60 1012.2
20260505022536 60 0.0 0.0 0.00 0.00 0.00 60 1012.2
20260505022035 60 0.0 0.0 0.00 0.00 0.00 60 1012.2
20260505021535 61 0.0 0.0 0.00 0.00 0.00 60 1012.2
20260505015933 61 0.0 0.0 0.00 0.00 0.00 59 1012.1
20260505015432 61 0.0 0.0 0.00 0.00 0.00 59 1012.1
20260505014401 61 0.0 0.0 0.00 0.00 0.00 59 1012.2
20260505013901 61 0.0 0.0 0.00 0.00 0.00 58 1012.2
20260505013400 61 0.0 0.0 0.00 0.00 0.00 58 1012.2
20260505012900 62 0.0 0.0 0.00 0.00 0.00 58 1012.2
20260505011828 62 0.0 0.0 0.00 0.00 0.00 57 1012.3
20260505011328 62 0.0 0.0 0.00 0.00 0.00 57 1012.3
20260505010257 62 0.0 0.0 0.00 0.00 0.00 56 1012.7
20260505005756 62 0.0 0.0 0.00 0.00 0.00 56 1012.7
20260505004725 62 0.0 0.0 0.00 0.00 0.00 56 1012.7
20260505000346 63 0.0 0.0 0.00 0.00 0.00 54 1013.2
20260504234744 63 0.0 0.0 0.00 0.00 0.00 54 1013.4
20260504234243 63 0.0 0.0 0.00 0.00 0.00 54 1013.4
20260504233743 63 0.0 0.0 0.00 0.00 0.00 53 1013.4
20260504232712 63 0.0 0.0 0.00 0.00 0.00 53 1013.7
20260504231640 63 0.0 0.0 0.00 0.00 0.00 53 1013.7
20260504230609 63 0.0 0.0 0.00 0.00 0.00 53 1013.8
20260504230108 63 0.0 0.0 0.00 0.00 0.00 52 1013.8
20260504225608 63 0.0 0.0 0.00 0.00 0.00 52 1013.8
20260504225108 64 0.0 0.0 0.00 0.00 0.00 51 1013.8
20260504224607 64 0.0 0.0 0.00 0.00 0.00 51 1013.8
20260504224107 64 0.0 0.0 0.00 0.00 0.00 51 1013.8
20260504221933 65 0.0 0.0 0.00 0.00 0.00 50 1013.6
20260504221433 65 0.0 0.0 0.00 0.00 0.00 49 1013.6
20260504215831 66 0.0 0.0 0.00 0.00 0.00 49 1013.8
20260504214228 66 0.0 0.0 0.00 0.00 0.00 48 1013.8
20260504213728 66 0.0 0.0 0.00 0.00 0.00 48 1013.8
20260504212656 67 0.0 0.0 0.00 0.00 0.00 47 1013.7
20260504212156 67 0.0 0.0 0.00 0.00 0.00 47 1013.7
20260504211124 67 0.0 0.0 0.00 0.00 0.00 46 1013.8
20260504210624 68 0.0 0.0 0.00 0.00 0.00 46 1013.8
20260504205552 68 0.0 0.0 0.00 0.00 0.00 45 1013.8
20260504203950 68 0.0 0.0 0.00 0.00 0.00 45 1013.9
20260504203450 68 0.0 0.0 0.00 0.00 0.00 45 1013.9
20260504202949 69 0.0 0.0 0.00 0.00 0.00 45 1013.9
20260504202449 69 0.0 0.0 0.00 0.00 0.00 45 1013.8
20260504201418 69 0.0 0.0 0.00 0.00 0.00 45 1013.8
20260504200917 69 0.0 0.0 0.00 0.00 0.00 45 1013.8
20260504195846 69 0.0 0.0 0.00 0.00 0.00 44 1014.1
20260504195345 69 0.0 0.0 0.00 0.00 0.00 44 1014.1
20260504194845 69 0.0 0.0 0.00 0.00 0.00 44 1014.0
20260504193813 70 0.0 0.0 0.00 0.00 0.00 44 1014.1
20260504193313 70 0.0 0.0 0.00 0.00 0.00 44 1014.1
20260504191710 70 0.0 0.0 0.00 0.00 0.00 43 1014.0
20260504191210 70 0.0 0.0 0.00 0.00 0.00 43 1013.9
20260504185037 71 0.0 0.0 0.00 0.00 0.00 43 1013.8
20260504183434 71 0.0 0.0 0.00 0.00 0.00 42 1013.8
20260504182934 71 0.0 0.0 0.00 0.00 0.00 42 1013.9
20260504181331 72 0.0 0.0 0.00 0.00 0.00 42 1014.1
20260504175728 73 0.0 0.0 0.00 0.00 0.00 41 1014.2
20260504175228 73 0.0 0.0 0.00 0.00 0.00 40 1014.2
20260504174728 73 0.0 0.0 0.00 0.00 0.00 40 1014.2
20260504174227 73 0.0 0.0 0.00 0.00 0.00 40 1014.2
20260504173156 73 0.0 0.0 0.00 0.00 0.00 40 1014.3
20260504172655 73 0.0 0.0 0.00 0.00 0.00 40 1014.3
20260504172155 73 0.0 0.0 0.00 0.00 0.00 40 1014.3
20260504171655 74 0.0 0.0 0.00 0.00 0.00 40 1014.5
20260504160142 75 0.0 0.0 0.00 0.00 0.00 38 1014.7
20260504150231 75 0.0 0.0 0.00 0.00 0.00 37 1015.3
20260504140454 75 0.0 0.0 0.00 0.00 0.00 38 1015.8
20260504130317 75 0.0 0.0 0.00 0.00 0.00 39 1016.4